Tracking 18795 objects as of 21-August-2017
HD Live streaming from Space Station
objects crossing your sky now

COSMOS 2251 DEB

Track COSMOS 2251 DEB now!
10-day predictions


NORAD ID: 34131
Int'l Code: 1993-036LC
Perigee: 694.7 km
Apogee: 709.8 km
Inclination: 74.1 °
Period: 98.7 minutes
Semi major axis: 7073 km
RCS: 0.018 m2 (small)
Launch date: June 16, 1993
Source: Commonwealth of Independent States (former USSR) (CIS)
Launch site: PLESETSK MISSILE AND SPACE COMPLEX (PKMTR)

Note: This is SATELLITE DEBRIS
Your satellite tracking list
Your tracking list is empty





NASA's NSSDC Master Catalog

Two Line Element Set (TLE):
1 34131U 93036LC  17233.55128574 +.00001825 +00000-0 +39099-3 0  9995
2 34131 074.1214 013.5246 0010643 024.1795 102.0281 14.59402751449139
Source of the keplerian elements: AFSPC